DW7259 Weather Reports


Display with metric or nautical units.
time (UTC)temp
F
wind
direction
speed
MPH
gust
MPH
rain 1hr
in
rain 24hr
in
rain mn
in
humidity
%
barometer
mb
20260905071549 51 137 2.0 6.0 0.00 0.01 0.00 67 1007.7
20260905070046 50 159 1.0 4.0 0.00 0.01 0.00 69 1007.5
20260905064547 49 160 0.0 3.0 0.00 0.01 0.01 68 1007.3
20260905063041 49 160 0.0 4.0 0.00 0.01 0.01 69 1007.1
20260905061542 49 160 0.0 1.0 0.00 0.01 0.01 69 1006.9
20260905060035 50 160 0.0 2.0 0.00 0.01 0.01 68 1006.7
20260905054534 50 160 0.0 0.0 0.00 0.01 0.01 67 1006.6
20260905053031 51 160 0.0 0.0 0.00 0.01 0.01 66 1006.4
20260905051529 51 160 0.0 3.0 0.00 0.01 0.01 66 1006.2
20260905050026 52 160 0.0 3.0 0.00 0.01 0.01 65 1006.1
20260905044524 53 160 0.0 0.0 0.00 0.01 0.01 66 1006.0
20260905043020 53 160 0.0 3.0 0.00 0.01 0.01 65 1005.8
20260905041518 54 160 0.0 2.0 0.00 0.01 0.01 64 1005.7
20260905040015 54 160 0.0 4.0 0.00 0.01 0.01 64 1005.4
20260905034518 55 160 0.0 0.0 0.00 0.01 0.01 63 1005.2
20260905033011 56 160 0.0 5.0 0.00 0.01 0.01 61 1004.9
20260905031520 57 160 1.0 7.0 0.00 0.01 0.01 59 1004.8
20260905030014 57 161 0.0 5.0 0.00 0.01 0.01 57 1004.5
20260905024509 58 161 3.0 8.0 0.00 0.01 0.01 55 1004.4
20260905023008 59 245 2.0 7.0 0.00 0.01 0.01 52 1004.4
20260905021506 60 104 0.0 14.0 0.00 0.01 0.01 50 1004.3
20260905020007 60 44 4.0 15.0 0.00 0.01 0.01 50 1004.5
20260905014505 60 38 0.0 21.0 0.00 0.01 0.01 50 1004.6
20260905013004 61 32 3.0 13.0 0.00 0.01 0.01 49 1004.4
20260905011505 61 40 3.0 13.0 0.00 0.01 0.01 47 1004.4
20260905010004 62 13 4.0 12.0 0.00 0.01 0.01 47 1004.5
20260905004503 63 79 1.0 5.0 0.00 0.01 0.01 48 1004.2
20260905003003 63 35 1.0 9.0 0.00 0.01 0.01 46 1004.4
20260905001501 63 38 2.0 12.0 0.00 0.01 0.01 46 1004.5
20260905000003 63 22 9.0 15.0 0.00 0.01 0.01 45 1004.6
20260904234501 64 28 3.0 14.0 0.00 0.01 0.01 45 1004.6
20260904233100 64 13 4.0 13.0 0.00 0.01 0.01 45 1004.5
20260904231601 64 40 0.0 6.0 0.00 0.01 0.01 48 1004.4
20260904230058 65 95 1.0 12.0 0.00 0.01 0.01 46 1004.2
20260904224557 64 27 1.0 14.0 0.00 0.01 0.01 44 1004.3
20260904223056 64 26 0.0 13.0 0.00 0.01 0.01 44 1004.3
20260904221557 64 168 1.0 4.0 0.00 0.01 0.01 45 1004.2
20260904220056 64 177 1.0 9.0 0.00 0.01 0.01 44 1004.2
20260904214552 64 36 0.0 8.0 0.00 0.01 0.01 49 1004.2
20260904213050 64 140 0.0 4.0 0.00 0.01 0.01 50 1004.3
20260904211549 64 148 0.0 4.0 0.00 0.01 0.01 52 1004.3
20260904210048 63 155 3.0 7.0 0.00 0.01 0.01 46 1004.2
20260904204545 63 333 2.0 6.0 0.00 0.01 0.01 51 1004.3
20260904203043 62 350 0.0 12.0 0.00 0.01 0.01 52 1004.3
20260904201541 62 39 3.0 8.0 0.00 0.01 0.01 52 1004.3
20260904200040 62 9 2.0 9.0 0.00 0.01 0.01 53 1004.2
20260904194549 62 10 4.0 10.0 0.00 0.01 0.01 53 1004.3
20260904193037 62 159 0.0 0.0 0.00 0.01 0.01 59 1004.3
20260904191536 61 159 1.0 5.0 0.00 0.01 0.01 57 1004.1
20260904190033 61 159 0.0 2.0 0.00 0.01 0.01 60 1004.1
20260904184534 60 159 0.0 2.0 0.00 0.01 0.01 65 1004.2
20260904183029 59 159 0.0 2.0 0.00 0.01 0.01 68 1004.0
20260904181543 57 159 0.0 4.0 0.00 0.01 0.01 73 1004.1
20260904180026 57 159 1.0 5.0 0.00 0.01 0.01 75 1003.8
20260904174525 56 159 0.0 3.0 0.00 0.01 0.01 78 1003.8
20260904173026 55 159 0.0 7.0 0.00 0.01 0.01 79 1003.7
20260904171521 55 160 2.0 7.0 0.00 0.01 0.01 79 1003.3
20260904170021 55 105 0.0 5.0 0.00 0.01 0.01 79 1003.2
20260904164520 55 105 0.0 3.0 0.01 0.01 0.01 80 1003.2
20260904163019 56 360 1.0 7.0 0.01 0.01 0.01 76 1003.0
20260904161516 56 360 0.0 3.0 0.01 0.01 0.01 77 1002.9
20260904160015 57 360 0.0 0.0 0.01 0.01 0.01 71 1003.2
20260904154509 57 360 0.0 0.0 0.00 0.00 0.00 68 1002.9
20260904153016 58 360 0.0 6.0 0.00 0.00 0.00 65 1002.8
20260904151506 58 360 0.0 0.0 0.00 0.00 0.00 61 1002.7
20260904150005 58 360 0.0 4.0 0.00 0.00 0.00 61 1002.6
20260904144505 58 360 0.0 4.0 0.00 0.00 0.00 62 1002.4
20260904143001 57 360 2.0 7.0 0.00 0.00 0.00 61 1002.3
20260904141606 58 360 0.0 4.0 0.00 0.00 0.00 61 1002.2
20260904140055 58 170 3.0 10.0 0.00 0.00 0.00 59 1002.1
20260904134559 58 360 3.0 12.0 0.00 0.00 0.00 58 1001.9
20260904133051 58 360 4.0 12.0 0.00 0.00 0.00 57 1002.0
20260904131549 58 171 6.0 11.0 0.00 0.00 0.00 55 1001.8
20260904130049 59 360 4.0 9.0 0.00 0.00 0.00 55 1001.7
20260904124548 59 360 7.0 15.0 0.00 0.00 0.00 54 1001.7
20260904123047 59 165 2.0 11.0 0.00 0.00 0.00 54 1001.5
20260904121547 59 360 5.0 13.0 0.00 0.00 0.00 54 1001.5
20260904120050 59 360 6.0 10.0 0.00 0.00 0.00 53 1001.5
20260904114546 59 360 5.0 11.0 0.00 0.00 0.00 53 1001.5
20260904113046 59 360 3.0 8.0 0.00 0.00 0.00 54 1001.5
20260904111551 59 360 3.0 15.0 0.00 0.00 0.00 52 1001.5
20260904110044 59 360 7.0 14.0 0.00 0.00 0.00 53 1001.5
20260904104551 59 360 2.0 15.0 0.00 0.00 0.00 55 1001.4
20260904103041 59 360 4.0 10.0 0.00 0.00 0.00 53 1001.1
20260904101540 59 360 6.0 16.0 0.00 0.00 0.00 53 1001.2
20260904100041 59 360 8.0 16.0 0.00 0.00 0.00 54 1001.2
20260904094539 59 360 5.0 14.0 0.00 0.00 0.00 54 1001.0
20260904093039 59 360 4.0 15.0 0.00 0.00 0.00 55 1001.2
20260904091537 59 360 9.0 14.0 0.00 0.00 0.00 55 1001.2
20260904090035 58 360 9.0 16.0 0.00 0.00 0.00 56 1001.2
20260904084539 59 360 11.0 20.0 0.00 0.00 0.00 55 1001.5
20260904083036 59 360 4.0 18.0 0.00 0.00 0.00 54 1001.5
20260904081530 59 140 8.0 16.0 0.00 0.00 0.00 53 1001.5
20260904080034 59 360 5.0 14.0 0.00 0.00 0.00 53 1001.5
20260904074528 59 360 8.0 17.0 0.00 0.00 0.00 53 1001.5
20260904073025 59 360 4.0 12.0 0.00 0.00 0.00 53 1001.5